Regional Weather Roundup
Issued by NWS

Home | Current Version | Previous Version | Text Only | Print | Product List | Glossary Off
Versions: 1 2 3 4 5 6 7 8 9 10 11 12 13 14 15 16 17 18 19 20 21 22 23 24 25 26 27 28 29 30 31 32 33 34 35 36 37 38 39 40 41 42 43 44 45 46 47 48 49 50

000
ASUS43 KFSD 301310
RWRSD

WEATHER ROUNDUP FOR SOUTH DAKOTA
NATIONAL WEATHER SERVICE SIOUX FALLS SD
800 AM CDT THU OCT 30 2014

NOTE: "FAIR" INDICATES FEW OR NO CLOUDS BELOW 12,000 FEET WITH NO
SIGNIFICANT WEATHER AND/OR OBSTRUCTIONS TO VISIBILITY.


SDZ001>005-009-010-012>017-301400-
NORTHWEST AND NORTH CENTRAL SOUTH DAKOTA

CITY           SKY/WX    TMP DP  RH WIND       PRES   REMARKS
BUFFALO          N/A     36  31  82 NW10      30.17R
FAITH            N/A     35  32  88 NW16      30.20R WCI  25
MOBRIDGE       CLEAR     39  35  86 NW18      30.13R
$$

SDZ012>016-024>037-041>051-057-063-072>074-301400-
SOUTHWEST AND SOUTH CENTRAL SOUTH DAKOTA

CITY           SKY/WX    TMP DP  RH WIND       PRES   REMARKS
RAPID CTY ARPT CLEAR     39  30  70 N10       30.22R
PIERRE         CLEAR     41  36  82 NW14      30.13R
CUSTER         CLEAR     34  26  72 S3        30.26R
ELLSWORTH AFB  CLEAR     47  32  57 N10       30.21R
PHILIP         CLEAR     35  30  82 W7        30.21R WCI  29
PINE RIDGE     CLEAR     34  27  75 W3        30.25R
SPEARFISH      FAIR      43  32  65 W9        30.26R
WINNER         FAIR      43  34  70 NW16      30.12R
$$

SDZ004>011-016>023-039-040-301400-
NORTHEAST SOUTH DAKOTA

CITY           SKY/WX    TMP DP  RH WIND       PRES   REMARKS
ABERDEEN       CLEAR     38  35  89 NW12      30.09R
WATERTOWN      MOCLDY    33  32  96 NW3       30.03R
SISSETON         N/A     38  38 100 N3        30.04R
$$

SDZ017-020-022-023-036>040-048>070-301400-
SOUTHEAST SOUTH DAKOTA

CITY           SKY/WX    TMP DP  RH WIND       PRES   REMARKS
SIOUX FALLS    PTCLDY    42  34  73 NW12      30.01R
HURON          CLEAR     37  34  89 NW13      30.07R
CHAMBERLAIN    CLEAR     41  36  83 NW14      30.11R
MITCHELL       CLEAR     38  34  85 NW12      30.06R
YANKTON        CLEAR     41  34  75 W10       30.04S
$$

ABBREVIATIONS USED IN REMARKS
   TC - TEMPERATURE IN CELSIUS
  WCI - WIND CHILL INDEX
   HX - HEAT INDEX
  VSB - VISIBILITY




USA.gov is the U.S. government's official web portal to all federal, state and local government web resources and services.